Preview of NWS' New Version of Forecast
This preview is not operational and should not be used for support decisions.

Regional Weather Roundup (RWR)

Issued by National Weather Service (NWS)

                            
000
ASUS43 KTOP 210659
RWRKS 

WEATHER ROUNDUP FOR KANSAS
NATIONAL WEATHER SERVICE GOODLAND KS
100 AM CST THU FEB 21 2019

NOTE:  "FAIR" INDICATES FEW OR NO CLOUDS BELOW 12,000 FEET WITH NO
SIGNIFICANT WEATHER AND/OR OBSTRUCTIONS TO VISIBILITY.

KSZ001>006-013>018-027>032-041>047-210800-
NORTHWEST KANSAS
  
CITY           SKY/WX    TMP DP  RH WIND       PRES   REMARKS
GOODLAND       PTCLDY    15   7  70 S9        29.83R                  
HAYS           CLEAR     23  20  88 CALM      29.95R                  
HILL CITY      CLEAR     15  12  88 CALM      29.92R                  
RUSSELL        CLEAR     21  20  96 S10       29.94S WCI  10          
$$

KSZ061>065-074>080-084>089-210800-
SOUTHWEST KANSAS
  
CITY           SKY/WX    TMP DP  RH WIND       PRES   REMARKS
DODGE CITY     CLEAR     25  12  58 SE15      29.89S WCI  13          
GARDEN CITY    CLEAR     24  11  57 SE14      29.86S WCI  12          
GREAT BEND     CLEAR     22  20  92 SE5       29.96R                  
LIBERAL        CLEAR     25  21  85 SE13      29.85F WCI  14          
$$

KSZ066>073-081>083-090>101-210800-
SOUTHEAST KANSAS
  
CITY           SKY/WX    TMP DP  RH WIND       PRES   REMARKS
CHANUTE        PTCLDY    25  22  88 E3        30.06F FOG              
COFFEYVILLE    PTCLDY    29  27  92 SE6       30.08R FOG              
HUTCHINSON     FOG       13  12  96 SE3       29.99R VSB 1/4          
MEDICINE LODGE   N/A     24  22  91 E6        29.99R                  
NEWTON         CLEAR     23  22  96 E8        30.01R FOG              
PARSONS        MOCLDY    27  26  96 CALM      30.07S FOG              
WICHITA INTL   CLOUDY    24  23  96 CALM      30.01R                  
WICHITA JABRA  CLOUDY    23  21  92 E3        30.01S FOG              
WINFIELD       CLOUDY    25  21  85 E6        30.04R                  
$$

KSZ007>012-019>026-033>040-048>060-102>105-210800-
NORTHEAST KANSAS
  
CITY           SKY/WX    TMP DP  RH WIND       PRES   REMARKS
CONCORDIA      CLOUDY    25  18  74 W3        29.98R                  
EMPORIA        CLOUDY    22  22 100 CALM      30.03S FOG              
LAWRENCE       CLOUDY    18  14  84 CALM      30.06R FOG              
MANHATTAN      CLEAR     21  19  92 CALM      30.03R                  
OLATHE IND     CLOUDY    26  24  92 S7        30.05R                  
OLATHE EXE     CLOUDY    25  24  96 S6        30.05R FOG              
SALINA         CLEAR     22  20  92 S6        30.01R FOG              
TOPEKA BILLARD CLOUDY    20  17  88 SE3       30.05R FOG              
TOPEKA FORBES  CLOUDY    22  19  89 CALM      30.04R FOG              
$$